Pella, IA

7:48 PM CST on December 15, 2017 (GMT -0600)
Pella Municipal

Weather History for KPEA - February, 2012

Change the Weather History Date:

Saturday, February 11, 2012

  Actual Average (KOXV) Record (KOXV)
Temperature  
Mean Temperature 12 °F -  
Max Temperature 21 °F 34 °F 66 °F (1999)
Min Temperature 2 °F 16 °F -17 °F (1981)
Degree Days  
Heating Degree Days 54    
Moisture  
Dew Point -1 °F    
Average Humidity 58    
Maximum Humidity 68    
Minimum Humidity 41    
Precipitation  
Precipitation 0.00 in - - ()
Sea Level Pressure  
Sea Level Pressure 30.58 in    
Wind  
Wind Speed 13 mph (WNW)    
Max Wind Speed 22 mph    
Max Gust Speed 28 mph    
Visibility 10 miles    
Events      
Averages and records for this station are not official NWS values.
T = Trace of Precipitation, MM = Missing Value Source: NWS Daily Summary

Daily Weather History Graph

Daily Weather History Graph

Search for Another Location

Airport or City:

Trip Planner

Search our weather history database for the weather conditions in past years. The results will help you decide how hot, cold, wet, or windy it might be!

Date:

Astronomy

Feb. 11, 2012 Rise Set
Actual Time 7:12 AM CST 5:40 PM CST
Civil Twilight 6:43 AM CST 6:08 PM CST
Nautical Twilight 6:11 AM CST 6:41 PM CST
Astronomical Twilight 5:39 AM CST 7:13 PM CST
Moon 10:33 PM CST (2/11) 8:51 AM CST (2/11)
Length of Visible Light 11h 24m
Length of Day
10h 27m
Waning Gibbous, 82% of the Moon is Illuminated
Feb 11
Waning Gibbous
Feb 14
Last Quarter
Feb 21
New
Feb 29
First Quarter
Mar 8
Full

Hourly Weather History & Observations

Time (CST) Temp. Windchill Dew Point Humidity Pressure Visibility Wind Dir Wind Speed Gust Speed Precip Events Conditions
12:15 AM 9.1 °F -6.4 °F -1.5 °F 62% 30.48 in 10.0 mi NNW 12.7 mph - N/A   Clear
12:35 AM 9.0 °F -5.1 °F -2.0 °F 61% 30.48 in 10.0 mi NNW 10.4 mph - N/A   Clear
12:55 AM 8.2 °F -7.5 °F -2.2 °F 63% 30.48 in 10.0 mi NW 12.7 mph - N/A   Clear
1:15 AM 7.9 °F -7.2 °F -2.4 °F 63% 30.49 in 10.0 mi NNW 11.5 mph - N/A   Clear
1:35 AM 8.1 °F -7.7 °F -2.4 °F 62% 30.50 in 10.0 mi NNW 12.7 mph 17.3 mph N/A   Clear
1:55 AM 7.9 °F -6.4 °F -2.4 °F 63% 30.50 in 10.0 mi NNW 10.4 mph - N/A   Clear
2:15 AM 7.7 °F -6.6 °F -2.6 °F 63% 30.50 in 10.0 mi NNW 10.4 mph - N/A   Clear
2:35 AM 7.5 °F -7.7 °F -2.4 °F 64% 30.51 in 10.0 mi NNW 11.5 mph - N/A   Clear
2:55 AM 7.5 °F -6.9 °F -2.6 °F 63% 30.51 in 10.0 mi NNW 10.4 mph - N/A   Clear
3:15 AM 7.3 °F -8.6 °F -3.1 °F 62% 30.52 in 10.0 mi NNW 12.7 mph - N/A   Clear
3:35 AM 7.0 °F -8.3 °F -3.3 °F 63% 30.52 in 10.0 mi NNW 11.5 mph - N/A   Clear
3:55 AM 6.3 °F -6.5 °F -3.8 °F 63% 30.53 in 10.0 mi NW 8.1 mph - N/A   Clear
4:15 AM 5.2 °F -9.8 °F -4.0 °F 66% 30.54 in 10.0 mi NW 10.4 mph - N/A   Clear
4:35 AM 5.0 °F -9.1 °F -4.4 °F 65% 30.54 in 10.0 mi WNW 9.2 mph - N/A   Clear
4:55 AM 4.6 °F -9.5 °F -4.7 °F 65% 30.55 in 10.0 mi NW 9.2 mph - N/A   Clear
5:15 AM 4.5 °F -11.5 °F -5.1 °F 65% 30.55 in 10.0 mi NW 11.5 mph - N/A   Clear
5:35 AM 4.3 °F -10.9 °F -5.1 °F 65% 30.56 in 10.0 mi NW 10.4 mph - N/A   Clear
5:55 AM 4.1 °F -12.0 °F -5.1 °F 66% 30.57 in 10.0 mi NW 11.5 mph - N/A   Clear
6:15 AM 3.9 °F -12.2 °F -5.1 °F 66% 30.58 in 10.0 mi NW 11.5 mph - N/A   Clear
6:35 AM 3.4 °F -12.0 °F -5.3 °F 67% 30.58 in 10.0 mi NW 10.4 mph - N/A   Clear
6:55 AM 2.8 °F -13.5 °F -5.6 °F 68% 30.59 in 10.0 mi WNW 11.5 mph - N/A   Clear
7:15 AM 2.3 °F -14.2 °F -6.0 °F 68% 30.59 in 10.0 mi WNW 11.5 mph - N/A   Clear
7:35 AM 2.1 °F -12.6 °F -6.2 °F 68% 30.61 in 10.0 mi WNW 9.2 mph - N/A   Clear
7:55 AM 2.7 °F -12.9 °F -6.0 °F 67% 30.61 in 10.0 mi NW 10.4 mph - N/A   Clear
8:15 AM 3.6 °F -10.9 °F -5.8 °F 65% 30.62 in 10.0 mi NW 9.2 mph - N/A   Clear
8:35 AM 4.6 °F -12.0 °F -5.6 °F 63% 30.63 in 10.0 mi NW 12.7 mph - N/A   Clear
8:55 AM 5.5 °F -12.3 °F -5.3 °F 61% 30.63 in 10.0 mi NW 15.0 mph 20.7 mph N/A   Clear
9:15 AM 6.4 °F -11.7 °F -5.3 °F 59% 30.64 in 10.0 mi NW 16.1 mph - N/A   Clear
9:35 AM 7.2 °F -10.8 °F -4.5 °F 59% 30.64 in 10.0 mi NW 16.1 mph 21.9 mph N/A   Clear
9:55 AM 7.9 °F -10.4 °F -4.2 °F 58% 30.65 in 10.0 mi NW 17.3 mph 20.7 mph N/A   Clear
10:15 AM 8.6 °F -9.5 °F -4.0 °F 57% 30.66 in 10.0 mi NW 17.3 mph 24.2 mph N/A   Clear
10:35 AM 9.7 °F -8.6 °F -3.8 °F 54% 30.66 in 10.0 mi NW 18.4 mph 24.2 mph N/A   Clear
10:55 AM 10.8 °F -8.1 °F -3.1 °F 54% 30.67 in 10.0 mi WNW 20.7 mph 25.3 mph N/A   Clear
11:15 AM 11.7 °F -5.5 °F -3.1 °F 52% 30.67 in 10.0 mi NW 17.3 mph 25.3 mph N/A   Clear
11:35 AM 12.6 °F -5.3 °F -2.6 °F 51% 30.67 in 10.0 mi NW 19.6 mph 24.2 mph N/A   Clear
11:55 AM 13.8 °F -2.7 °F -2.2 °F 49% 30.66 in 10.0 mi NW 17.3 mph 26.5 mph N/A   Clear
12:15 PM 14.5 °F -1.8 °F -1.3 °F 50% 30.66 in 10.0 mi WNW 17.3 mph 24.2 mph N/A   Clear
12:35 PM 15.3 °F -2.2 °F -1.1 °F 48% 30.64 in 10.0 mi WNW 20.7 mph 25.3 mph N/A   Clear
12:55 PM 15.8 °F 0.3 °F -0.4 °F 49% 30.63 in 10.0 mi WNW 16.1 mph 25.3 mph N/A   Clear
1:15 PM 16.5 °F 2.4 °F -0.0 °F 48% 30.62 in 10.0 mi WNW 13.8 mph 26.5 mph N/A   Clear
1:35 PM 17.4 °F 1.0 °F 0.1 °F 47% 30.61 in 10.0 mi WNW 19.6 mph 24.2 mph N/A   Clear
1:55 PM 18.5 °F 3.8 °F 1.2 °F 47% 30.61 in 10.0 mi WNW 16.1 mph 27.6 mph N/A   Clear
2:15 PM 19.2 °F 4.3 °F 1.0 °F 45% 30.61 in 10.0 mi WNW 17.3 mph 25.3 mph N/A   Clear
2:35 PM 19.4 °F 4.1 °F 0.9 °F 45% 30.60 in 10.0 mi WNW 18.4 mph 26.5 mph N/A   Clear
2:55 PM 19.6 °F 3.1 °F 0.5 °F 43% 30.60 in 10.0 mi WNW 21.9 mph 27.6 mph N/A   Clear
3:15 PM 20.5 °F 5.9 °F 1.0 °F 43% 30.60 in 10.0 mi WNW 17.3 mph 25.3 mph N/A   Clear
3:35 PM 21.0 °F 6.2 °F 2.1 °F 44% 30.59 in 10.0 mi WNW 18.4 mph 23.0 mph N/A   Clear
3:55 PM 21.2 °F 7.8 °F 1.2 °F 42% 30.59 in 10.0 mi WNW 15.0 mph 24.2 mph N/A   Clear
4:15 PM 21.2 °F 6.4 °F 1.4 °F 42% 30.59 in 10.0 mi WNW 18.4 mph 24.2 mph N/A   Clear
4:35 PM 21.2 °F 7.8 °F 0.9 °F 41% 30.59 in 10.0 mi WNW 15.0 mph 24.2 mph N/A   Clear
4:55 PM 21.0 °F 7.6 °F 1.2 °F 42% 30.58 in 10.0 mi WNW 15.0 mph 21.9 mph N/A   Clear
5:15 PM 20.7 °F 7.6 °F 1.6 °F 44% 30.58 in 10.0 mi WNW 13.8 mph 19.6 mph N/A   Clear
5:35 PM 19.2 °F 5.3 °F 2.8 °F 49% 30.58 in 10.0 mi West 15.0 mph - N/A   Clear
5:55 PM 17.1 °F 1.5 °F 4.1 °F 57% 30.58 in 10.0 mi West 17.3 mph 24.2 mph N/A   Clear
6:15 PM 15.1 °F -1.1 °F 4.1 °F 62% 30.58 in 10.0 mi West 17.3 mph - N/A   Clear
6:35 PM 14.0 °F -1.4 °F 3.9 °F 64% 30.58 in 10.0 mi West 15.0 mph 20.7 mph N/A   Clear
6:55 PM 13.3 °F -1.8 °F 3.6 °F 65% 30.58 in 10.0 mi West 13.8 mph - N/A   Clear
7:15 PM 12.7 °F -2.5 °F 3.2 °F 66% 30.58 in 10.0 mi West 13.8 mph - N/A   Clear
7:35 PM 12.4 °F -3.5 °F 3.0 °F 66% 30.57 in 10.0 mi West 15.0 mph - N/A   Clear
7:55 PM 12.2 °F -4.3 °F 2.5 °F 65% 30.58 in 10.0 mi West 16.1 mph 19.6 mph N/A   Clear
8:15 PM 11.8 °F -4.2 °F 2.3 °F 66% 30.57 in 10.0 mi West 15.0 mph - N/A   Clear
8:35 PM 11.7 °F -2.5 °F 2.3 °F 66% 30.58 in 10.0 mi West 11.5 mph - N/A   Clear
8:55 PM 11.7 °F -3.2 °F 2.5 °F 67% 30.58 in 10.0 mi West 12.7 mph - N/A   Clear
9:15 PM 12.0 °F -2.7 °F 1.8 °F 64% 30.57 in 10.0 mi West 12.7 mph - N/A   Clear
9:35 PM 12.0 °F -2.0 °F 1.4 °F 62% 30.57 in 10.0 mi West 11.5 mph 18.4 mph N/A   Clear
9:55 PM 12.0 °F -2.7 °F 1.2 °F 62% 30.57 in 10.0 mi West 12.7 mph - N/A   Clear
10:15 PM 11.3 °F -2.2 °F 1.6 °F 65% 30.58 in 10.0 mi West 10.4 mph - N/A   Clear
10:35 PM 10.0 °F -2.9 °F 1.6 °F 69% 30.57 in 10.0 mi West 9.2 mph - N/A   Clear
10:55 PM 9.5 °F -4.4 °F 1.4 °F 70% 30.57 in 10.0 mi West 10.4 mph - N/A   Clear
11:15 PM 9.7 °F -4.2 °F 1.4 °F 69% 30.56 in 10.0 mi West 10.4 mph - N/A   Clear
11:35 PM 9.3 °F -3.8 °F 0.5 °F 67% 30.56 in 10.0 mi West 9.2 mph - N/A   Clear
11:55 PM 9.7 °F -4.2 °F 0.5 °F 66% 30.55 in 10.0 mi West 10.4 mph - N/A   Clear